Regional Weather Roundup
Issued by NWS

Home | Current Version | Previous Version | Text Only | Print | Product List | Glossary On
Versions: 1 2 3 4 5 6 7 8 9 10 11 12 13 14 15 16 17 18 19 20 21 22 23 24 25 26 27 28 29
000
ASUS42 KTBW 302217
RWRFL
FLORIDA REGIONAL WEATHER ROUNDUP
NATIONAL WEATHER SERVICE TAMPA BAY RUSKIN FL
600 PM EDT TUE AUG 30 2016

NOTE: "FAIR" INDICATES FEW OR NO CLOUDS BELOW 12,000 FEET WITH NO
SIGNIFICANT WEATHER AND/OR OBSTRUCTIONS TO VISIBILITY.

FLZ001>010-012>015-112-114-115-302300-
PANHANDLE FLORIDA

CITY           SKY/WX    TMP DP  RH WIND       PRES   REMARKS
PENSACOLA      MOSUNNY   93  70  46 NE7       29.88F HX  99
PENSACOLA NAS  MOSUNNY   90  74  59 SE10      29.87F HX  99
MILTON NAS     MOSUNNY   91  72  53 VRB7      29.89F HX  98
CRESTVIEW      PTSUNNY   89  69  51 E8        29.91S
DUKE FIELD     MOSUNNY   92  69  47 NE8       29.88F HX  96
VALPARAISO     MOSUNNY   94  68  43 NE12      29.88S HX  98
MARY ESTHER    MOSUNNY   92  67  43 E12       29.86F HX  95
TRI COUNTY     FAIR      91  70  49 NE9       29.89F HX  96
PANAMA CITY    FAIR      89  70  53 N9        29.86F
TYNDALL AFB    MOSUNNY   92  72  52 N10       29.86F HX  99
APALACHICOLA   SUNNY     89  76  65 E13G18    29.86F HX 100

STATION/POSITION SKY/WX   TEMP    WIND        PRES    WAVE   SWELL
                          AIR SEA DIR/SP/G            HT/PER HT/PER
                          (F)     (DEG/KT/KT) (MB)    (FT/S) (FT/S)
30.1N   87.6W              86 86  100/ 12/ 14 1011.7F   4/ 7   3/ 7
29.2N   88.2W              84 86   60/ 19/ 23 1011.0F
28.8N   86.0W              84 85   10/ 19/ 21 1010.6    6/ 6
PANAMA CITY BEAC           91 86   90/  8/ 18 1011.9F
TOWER C                    84      90/ 14/ 15 1011.6F
28.5N   84.5W              85 85   90/ 14/ 16 1010.4F   4/ 5

$$
FLZ011-016>038-118-127-128-134-139-239-302300-
NORTH FLORIDA

CITY           SKY/WX    TMP DP  RH WIND       PRES   REMARKS
MARIANNA       MOSUNNY   92  71  50 NE12      29.87F HX  98
TALLAHASSEE    MOSUNNY   90  73  57 E10       29.87S HX  98
PERRY          MOSUNNY   87  74  63 E8        29.87F HX  95
CROSS CITY     MOSUNNY   84  73  70 E9G16     29.87S
LAKE CITY      PTSUNNY   82  72  69 E10G20    29.90S
GAINESVILLE    CLOUDY    81  74  79 NE10      29.89S
WILLISTON      FAIR      84  77  79 NE7       29.88R
PALATKA        FAIR      82  64  54 SE10      29.89F
MAYPORT NAS    CLOUDY    82  73  74 E21G26    29.92F
JACKSONVILLE   LGT RAIN  77  76  96 E13       29.92S
JAX NAS        CLOUDY    81  75  82 E10       29.92S
FERNANDINA BEA PTSUNNY   84  73  70 E15       29.92F
ST AUGUSTINE   CLOUDY    80  75  84 E16       29.91S HAZE
PALM COAST     PTSUNNY  N/A N/A N/A MISG      29.88F

STATION/POSITION SKY/WX   TEMP    WIND        PRES    WAVE   SWELL
                          AIR SEA DIR/SP/G            HT/PER HT/PER
                          (F)     (DEG/KT/KT) (MB)    (FT/S) (FT/S)
SHELL POINT      NOT AVBL
KEATON BEACH               84      80/  8/ 11 1010.9F
CEDAR KEY                  86      50/ 10/ 11 1011.3F
FERNANDINA                 84 85   70/  8/ 13 1013.8F
30.7N   81.3W                 85                N/A     5/13   2/13
MAYPORT                    80 85  100/ 12/ 18 1013.9F
31.4N   80.9W              81 85   90/  8/ 10 1014.3S   4/ 6   3/ 6
ST AUGUSTINE               80 83  110/ 14/ 16 1013.1F

$$
FLZ040-043>046-052-053-057-058-063-144-302300-
INTERIOR CENTRAL FLORIDA

CITY           SKY/WX    TMP DP  RH WIND       PRES   REMARKS
OCALA          PTSUNNY   81  75  83 NE6       29.87S
THE VILLAGES     N/A     86  77  74 MISG      29.77S HX  97
LEESBURG       CLOUDY    80  74  81 S13       29.89R
SANFORD        CLOUDY    80  75  84 S12       29.87F
ORLANDO EXEC   CLOUDY    76  75  97 S13       29.88F
ORLANDO INTL   TSTM      76  74  93 S8        29.89F
KISSIMMEE      TSTM      77  75  94 S3        29.89F
WINTER HAVEN   RAIN      76  73  91 S6        29.91S FOG
LAKELAND       HVY RAIN  75  75 100 SE9       29.90S
BARTOW         RAIN      73 N/A N/A SE9       29.90S
OKEECHOBEE     CLOUDY    77  73  88 S7        29.91S

$$
FLZ041-047-054-059-064-141-147-302300-
EAST CENTRAL FLORIDA

CITY           SKY/WX    TMP DP  RH WIND       PRES   REMARKS
ORMOND BEACH   MOSUNNY   81  75  83 E9        29.88F
DAYTONA BEACH  PTSUNNY   84  74  71 VRB3      29.88F
DELAND         MOSUNNY   84  75  74 E5        29.87F
NEW SMYRNA BEA PTSUNNY   82  75  78 SE9       29.89F
JFK SPACE CTR  CLOUDY    79  73  81 S12       29.88S
TITUSVILLE     PTSUNNY   75  73  94 S17       29.89F
CAPE CANAVERAL CLOUDY    78  73  83 S15G22    29.88S
PATRICK AFB    CLOUDY    77  75  92 S14       29.88F
MELBOURNE      LGT RAIN  76  76 100 S8        29.89S
VERO BEACH     CLOUDY    78  73  84 S13       29.90F
FT PIERCE      PTSUNNY   78  74  87 S7        29.90F
STUART         PTSUNNY   81  75  83 S9        29.93F

STATION/POSITION SKY/WX   TEMP    WIND        PRES    WAVE   SWELL
                          AIR SEA DIR/SP/G            HT/PER HT/PER
                          (F)     (DEG/KT/KT) (MB)    (FT/S) (FT/S)
28.5N   80.2W              79 83  190/ 21/ 25 1012.2
TRIDENT PIER               78 85  180/ 10/ 14 1012.4F
28.4N   80.5W                 85                N/A     4/ 6   2/13
27.5N   80.2W                 83                N/A     4/12   2/12

$$
FLZ050-056-061-142-242-148-248-149-249-151-251-155-255-
160-260-302300-
WEST CENTRAL FLORIDA

CITY           SKY/WX    TMP DP  RH WIND       PRES   REMARKS
CRYSTAL RIVER  FAIR      84  75  74 E5        29.85S
INVERNESS      PTSUNNY   86  77  74 SE10      29.87R HX  97
BROOKSVILLE    CLOUDY    78  75  90 SE3       29.87F
CLEARWATER AIR PTSUNNY   79  77  94 N3        29.85F
ST PETE CLEARW PTSUNNY   85  74  69 S12       29.85F
TAMPA INTL     LGT RAIN  80  76  87 NE10      29.88R FOG
TAMPA EXEC     LGT RAIN  81  77  89 SE3       29.88S
PLANT CITY     LGT RAIN  79  79 100 SE6       29.90S
MACDILL AFB    CLOUDY    82  79  89 SE14      29.86S
PETER O KNIGHT CLOUDY    82  79  89 SE12      29.87S
ST PETERSBURG  PTSUNNY   83  78  85 SE14      29.83F
SARASOTA       CLOUDY    84  73  69 S13       29.85S
VENICE         LGT RAIN  77  75  94 S6        29.88S

STATION/POSITION SKY/WX   TEMP    WIND        PRES    WAVE   SWELL
                          AIR SEA DIR/SP/G            HT/PER HT/PER
                          (F)     (DEG/KT/KT) (MB)    (FT/S) (FT/S)
27.3N   84.2W                 86                N/A     4/ 5
CLEARWATER BEACH           84 86  180/ 10/ 12 1011.4R
MIDDLE TAMPA BAY                  190/ 10/ 12 1011.5F
VENICE                     81 84  160/  9/ 11 1011.3S

$$
FLZ066-069-070-075>078-162-262-165-265-302300-
SOUTHWEST FLORIDA AND KEYS

CITY           SKY/WX    TMP DP  RH WIND       PRES   REMARKS
PUNTA GORDA    CLOUDY    77  75  93 SW5       29.90S
FT MYERS       CLOUDY    78  74  87 SE7       29.87F
SOUTHWEST INTL LGT RAIN  76  73  91 SE6       29.87F
NAPLES         LGT RAIN  77  76  96 E6        29.86F FOG
MARATHON       CLOUDY    83  75  77 S12G21    29.89S
KEY WEST NAS   CLOUDY    84  75  74 S18       29.88S
KEY WEST INTL  PTSUNNY   83  77  82 S15G25    29.88S

STATION/POSITION SKY/WX   TEMP    WIND        PRES    WAVE   SWELL
                          AIR SEA DIR/SP/G            HT/PER HT/PER
                          (F)     (DEG/KT/KT) (MB)    (FT/S) (FT/S)
NAPLES                        85              1012.0F
26.0N   85.6W              83 86  120/ 14/ 16 1008.4F   7/ 8   5/ 8
DRY TORTUGAS               81     200/ 22/ 23 1010.9F
SAND KEY                   82     200/ 20/ 26 1011.8F
LONG KEY                   82 83  200/ 14/ 15 1012.4F

$$
FLZ067-068-071>074-168-172>174-302300-
SOUTHEAST FLORIDA

CITY           SKY/WX    TMP DP  RH WIND       PRES   REMARKS
W PALM BEACH   RAIN      75  72  90 S8        29.95S
BOCA RATON     DRIZZLE   73  73 100 S8        29.95R
FT LAUDER-EXEC RAIN      76  73  91 E7        29.94R
FT LAUDERDALE  CLOUDY    75  74  96 E8        29.94R
POMPANO BEACH  LGT RAIN  76  74  93 SE6       29.94R
OPA LOCKA      CLOUDY    77  76  96 E8        29.94R
MIAMI          LGT RAIN  78  75  90 E3        29.94R
WEST KENDALL   CLOUDY    76  76 100 E5        29.92R
HOMESTEAD      CLOUDY    78  76  93 NE5       29.92R

STATION/POSITION SKY/WX   TEMP    WIND        PRES    WAVE   SWELL
                          AIR SEA DIR/SP/G            HT/PER HT/PER
                          (F)     (DEG/KT/KT) (MB)    (FT/S) (FT/S)
PORT EVERGLADES            75     170/  2/  5 1013.3F
VIRGINIA KEY               75 87  290/  4/  6 1013.7R
LAKE WORTH                 73 85  190/ 10/ 12 1013.9S
FOWEY ROCKS                78 84  300/  3/  4 1013.9R
SETTLEMENT POINT           81     140/  6/  7 1014.9R

$$





USA.gov is the U.S. government's official web portal to all federal, state and local government web resources and services.